Regional Weather Roundup
Issued by NWS

Home | Current Version | Previous Version | Text Only | Print | Product List | Glossary On
Versions: 1 2 3 4 5 6 7 8 9 10 11 12 13 14 15 16 17 18 19 20 21 22 23 24 25 26 27 28 29 30 31 32 33 34 35 36 37 38 39 40 41 42 43 44 45 46 47 48 49 50
700
ASUS45 KBOU 080407
RWRCO

WEATHER ROUNDUP FOR COLORADO
NATIONAL WEATHER SERVICE DENVER/BOULDER CO
900 PM MST WED DEC 07 2016

NOTE: "FAIR" INDICATES FEW OR NO CLOUDS BELOW 12000 FEET WITH NO
SIGNIFICANT WEATHER AND/OR OBSTRUCTIONS TO VISIBILITY.

COZ001>005-013-030-031-080500-
...NORTHWEST COLORADO...

CITY           SKY/WX    TMP DP  RH WIND       PRES   REMARKS
CRAIG          FAIR      -4  -9  79 CALM      30.29S
HAYDEN         FAIR      -6 -15  65 E9        30.26S WCI -22
MEEKER         FAIR      -5 -10  79 NE6       30.26S WCI -18
MOUNT WERNER   NOT AVBL
STEAMBOAT SPGS FAIR      -1  -4  85 CALM      30.25R
WALDEN           N/A    -15 -22  70 E7        30.18R WCI -31
$$

COZ006>008-011-080500-
...WEST CENTRAL VALLEYS...

CITY           SKY/WX    TMP DP  RH WIND       PRES   REMARKS
GRAND JUNCTION FAIR      23   8  52 VRB5      30.27R WCI  17
MONTROSE       FAIR      14   7  73 SE10      30.28R WCI   1
EAGLE          FAIR       6  -3  66 E6        30.29R WCI  -4
RIFLE          FAIR      11   4  73 SE8       30.30R WCI  -1
DELTA          FAIR      20   2  46 NE6       30.28R WCI  12
NUCLA          FAIR      18   3  53 E7        30.27S WCI   8
$$

COZ017>023-064>068-080500-
...SOUTHWEST COLORADO...

CITY           SKY/WX    TMP DP  RH WIND       PRES   REMARKS
DURANGO        FAIR      15   0  51 N6        30.17R WCI   6
CORTEZ         FAIR      15   9  76 CALM      30.23R
PAGOSA SPRINGS FAIR      13  -1  51 N3        30.17R
TELLURIDE      FAIR       6  -2  69 SE5       30.14S WCI  -3
WOLF CREEK PAS FAIR       0  -6  78 SW22G32   30.06R WCI -23
$$

COZ009-010-012-014-032>034-037-058>063-080500-
...CENTRAL COLORADO...

CITY           SKY/WX    TMP DP  RH WIND       PRES   REMARKS
ASPEN          CLOUDY     5   0  79 SW7       30.18S WCI  -7
BUENA VISTA    FAIR       6  -4  63 CALM      30.17R
COPPER MTN     CLOUDY    -4 -11  71 MISG      29.97R
BERTHOUD PASS  FAIR     -13 -24  58 MISG      29.88S
COTTONWOOD PAS FAIR       9  -6  52 NW5       30.07R WCI   0
GUNNISON       FAIR       5  -5  63 NE3       30.20R
KREMMLING      FAIR       0  -8  71 CALM      30.25R
LEADVILLE      FAIR      -8 -12  83 NE7       30.06S WCI -23
MONARCH PASS   FAIR      -4  -8  84 W24       30.08R WCI -29
SALIDA         FAIR      11   6  79 SE10G18   30.27R WCI  -2
SUNLIGHT       FAIR     N/A N/A N/A W3        30.10R
WILKERSON PASS FAIR      -2  -9  71 NW8       30.01S WCI -17
$$

COZ069>075-080500-
...SAN LUIS VALLEY/SANGRE DE CRISTO MOUNTAINS...

CITY           SKY/WX    TMP DP  RH WIND       PRES   REMARKS
ALAMOSA        FAIR       8  -3  61 S8        30.16R WCI  -4
LA VETA PASS   FOG        0  -4  85 S5        30.07R VSB 1/2 WCI -10
SAGUACHE       FAIR      14   0  52 N12G17    30.16R WCI   0
$$

COZ035-036-038>040-080500-
...NORTHERN COLORADO FRONT RANGE...

CITY           SKY/WX    TMP DP  RH WIND       PRES   REMARKS
DENVER INTL AP FAIR      -1  -4  87 S8        30.36R WCI -15
DMNS CITY PARK   N/A      5   1  85 SE9       30.38R WCI  -9
AURORA         PTCLDY     0  -4  85 S5        30.35R WCI -10
FRONT RANGE AP NOT AVBL
ERIE MUNI ARPT FAIR      -5  -9  83 CALM      30.39R
BOULDER MUN AP FAIR       5   3  92 CALM      30.37R
CENTENNIAL     MOCLDY     5   1  83 SE3       30.32S
BROOMFIELD     MOCLDY     7   1  78 CALM      30.34S
FORT COLLINS   CLOUDY     5   0  78 S7        30.39S WCI  -7
LONGMONT       CLOUDY     8   3  81 CALM      30.42R
$$

COZ041-046-047-076>085-087-088-080500-
...PIKES PEAK/PALMER DIVIDE AND SOUTHERN FOOTHILLS...

CITY           SKY/WX    TMP DP  RH WIND       PRES   REMARKS
COLO. SPRINGS  LGT SNOW  10   6  84 W6        30.31R FOG     WCI   0
A. F. ACADEMY  FLURRIES   3  -2  81 N5        30.27R WCI  -7
SCHRIEVER AFB  NOT AVBL
ELLICOTT       LGT RAIN N/A N/A N/A CALM        N/A
FALCON         LGT SNOW   5   1  83 SW5       30.26S WCI  -4
FORT CARSON    NOT AVBL
LIMON          FAIR      -2  -5  87 N12       30.37R WCI -20
MONUMENT HILL  FLURRIES   1  -2  85 SW5       30.25S WCI  -8
TRINIDAD       CLOUDY    16   6  65 E3        30.33R
$$

COZ042>045-048>051-090-091-080500-
...NORTHEAST COLORADO...

CITY           SKY/WX    TMP DP  RH WIND       PRES   REMARKS
GREELEY ARPT   FAIR      -8 -14  74 CALM      30.44R
AKRON          FAIR      -5 -10  79 W7        30.40R WCI -19
BURLINGTON     FAIR       0  -7  72 NW10      30.45R WCI -16
WRAY           FAIR      -4  -8  84 W7        30.48  WCI -18
STERLING       FAIR       1  -6  71 NW12      30.45R WCI -15
HOLYOKE        FAIR       7   0  72 W7        30.47R WCI  -5
FORT MORGAN    FAIR      -2  -8  76 W9        30.44R WCI -18
$$

COZ086-089-092>099-080500-
...SOUTHEAST COLORADO...

CITY           SKY/WX    TMP DP  RH WIND       PRES   REMARKS
PUEBLO         MOCLDY    14   7  73 E12       30.40R WCI   0
LA JUNTA       CLOUDY    17   9  70 N13       30.45R WCI   4
LAMAR          CLOUDY    14   7  73 NE3       30.47R
SPRINGFIELD      N/A     13   8  81 N15       30.41R WCI  -3
$$




USA.gov is the U.S. government's official web portal to all federal, state and local government web resources and services.